User: anonymous   Login
Location: Caltech
(34.1382°N, 118.1253°W)
Time: 00:18:42
(UTC-08:00)
Language:

Cosmos 1939 Rocket - Orbit

View from above orbital plane
View from above orbital plane
View from above satellite
View from above satellite

Ground track
Ground track

The orbit data is extracted from the following two-line orbital elements,

1 19046U 88032B   15027.56294406  .00002013  00000-0  16186-3 0  1153
2 19046 097.6190 082.8589 0042317 055.7486 304.7735 15.00444537441838
Epoch (UTC): 27 January 2015 13:30:38
Eccentricity: 0.0042317
inclination: 97.6190°
perigee height: 536 km
apogee height: 595 km
right ascension of ascending node: 82.8589°
argument of perigee: 55.7486°
revolutions per day: 15.00444537
mean anomaly at epoch: 304.7735°
orbit number at epoch: 44183

The dashed part of the orbit path shows where the satellite is in the earth's shadow,  

DLR